Weather History for Beatrice, NE

Change the Weather History Date:

Saturday, January 19, 2013

  Actual Average Record
Temperature  
Mean Temperature 41 °F -  
Max Temperature 56 °F 34 °F 66 °F (1951)
Min Temperature 26 °F 14 °F -8 °F (1963)
Degree Days  
Heating Degree Days 24    
Moisture  
Dew Point 25 °F    
Average Humidity 61    
Maximum Humidity 85    
Minimum Humidity 26    
Precipitation  
Precipitation 0.00 in - - ()
Sea Level Pressure  
Sea Level Pressure 30.06 in    
Wind  
Wind Speed 8 mph (NW)    
Max Wind Speed 25 mph    
Max Gust Speed 32 mph    
Visibility 10 miles    
Events      
Averages and records for this station are not official NWS values.
T = Trace of Precipitation, MM = Missing Value Source: NWS Daily Summary

Daily Weather History Graph

Daily Weather History Graph

Search for Another Location

Airport:

Trip Planner

Search our weather history database for the weather conditions in past years. The results will help you decide how hot, cold, wet, or windy it might be!

Date:

Astronomy

Jan. 19, 2013 Rise Set
Actual Time 7:45 AM CST 5:30 PM CST
Civil Twilight 7:16 AM CST 6:00 PM CST
Nautical Twilight 6:42 AM CST 6:33 PM CST
Astronomical Twilight 6:10 AM CST 7:05 PM CST
Moon 11:57 AM CST (1/19) 1:21 AM CST (1/19)
Length of Visible Light 10h 43m
Length of Day
9h 44m
First Quarter, 57% of the Moon is Illuminated
Jan 19
First Quarter
Jan 26
Full
Feb 3
Last Quarter
Feb 10
New
Feb 17
First Quarter

Hourly Weather History & Observations

Time (CST) Temp. Windchill Dew Point Humidity Pressure Visibility Wind Dir Wind Speed Gust Speed Precip Events Conditions
12:15 AM 32.0 °F 27.5 °F 25.7 °F 78% 29.93 in 10.0 mi SSW 4.6 mph - N/A   Clear
12:35 AM 30.9 °F 27.5 °F 23.9 °F 75% 29.93 in 10.0 mi South 3.5 mph - N/A   Clear
12:55 AM 32.2 °F 25.0 °F 25.7 °F 77% 29.92 in 10.0 mi South 8.1 mph - N/A   Clear
1:15 AM 32.0 °F 25.6 °F 26.1 °F 79% 29.92 in 10.0 mi SSW 6.9 mph - N/A   Clear
1:35 AM 31.8 °F 26.2 °F 25.9 °F 79% 29.92 in 10.0 mi SSW 5.8 mph - N/A   Clear
1:55 AM 29.7 °F 24.7 °F 23.5 °F 78% 29.92 in 10.0 mi SSW 4.6 mph - N/A   Clear
2:15 AM 31.1 °F 24.5 °F 25.2 °F 79% 29.92 in 10.0 mi SSW 6.9 mph - N/A   Clear
2:35 AM 30.9 °F 25.2 °F 25.7 °F 81% 29.91 in 10.0 mi South 5.8 mph - N/A   Clear
2:55 AM 31.1 °F 25.4 °F 25.9 °F 81% 29.91 in 10.0 mi SSW 5.8 mph - N/A   Clear
3:15 AM 31.5 °F 25.8 °F 25.9 °F 80% 29.91 in 10.0 mi SSW 5.8 mph - N/A   Clear
3:35 AM 32.0 °F 25.6 °F 26.6 °F 80% 29.90 in 10.0 mi SSW 6.9 mph - N/A   Clear
3:55 AM 31.6 °F - 26.6 °F 82% 29.91 in 10.0 mi Calm Calm - N/A   Clear
4:15 AM 32.0 °F - 26.6 °F 80% 29.91 in 10.0 mi Calm Calm - N/A   Clear
4:35 AM 28.4 °F 23.3 °F 23.9 °F 83% 29.91 in 10.0 mi SW 4.6 mph - N/A   Clear
4:55 AM 30.6 °F 25.8 °F 25.2 °F 80% 29.91 in 10.0 mi SW 4.6 mph - N/A   Clear
5:15 AM 30.0 °F 26.5 °F 24.8 °F 81% 29.92 in 10.0 mi SW 3.5 mph - N/A   Clear
5:35 AM 29.3 °F 25.6 °F 23.2 °F 78% 29.91 in 10.0 mi SW 3.5 mph - N/A   Clear
5:55 AM 26.6 °F 19.1 °F 22.6 °F 85% 29.92 in 10.0 mi SW 6.9 mph - N/A   Clear
6:35 AM 28.2 °F 24.4 °F 23.5 °F 83% 29.92 in 10.0 mi SSW 3.5 mph - N/A   Clear
7:15 AM 27.9 °F - 23.4 °F 83% 29.92 in 10.0 mi Calm Calm - N/A   Clear
7:55 AM 29.7 °F 23.7 °F 24.3 °F 80% 29.96 in 10.0 mi West 5.8 mph - N/A   Clear
8:15 AM 32.9 °F 25.9 °F 26.2 °F 76% 29.96 in 10.0 mi West 8.1 mph - N/A   Clear
8:35 AM 33.4 °F 27.3 °F 26.6 °F 76% 29.96 in 10.0 mi West 6.9 mph - N/A   Clear
9:35 AM 35.4 °F 29.7 °F 27.7 °F 73% 30.01 in 10.0 mi West 6.9 mph - N/A   Clear
9:55 AM 38.8 °F 33.8 °F 29.3 °F 69% 30.02 in 10.0 mi West 6.9 mph - N/A   Clear
10:15 AM 42.1 °F 36.6 °F 30.0 °F 62% 30.03 in 10.0 mi WNW 9.2 mph - N/A   Clear
10:35 AM 46.6 °F - 28.9 °F 50% 30.03 in 10.0 mi WNW 9.2 mph - N/A   Clear
11:15 AM 53.2 °F - 25.5 °F 34% 30.03 in 10.0 mi NW 10.4 mph 17.3 mph N/A   Clear
11:35 AM 55.8 °F - 22.8 °F 28% 30.03 in 10.0 mi NW 18.4 mph 24.2 mph N/A   Clear
11:55 AM 55.6 °F - 22.8 °F 28% 30.03 in 10.0 mi NNW 19.6 mph - N/A   Clear
12:15 PM 56.3 °F - 23.2 °F 28% 30.03 in 10.0 mi NW 18.4 mph 21.9 mph N/A   Clear
12:35 PM 55.9 °F - 22.3 °F 27% 30.03 in 10.0 mi NW 21.9 mph 28.8 mph N/A   Clear
12:55 PM 56.7 °F - 21.9 °F 26% 30.03 in 10.0 mi NW 24.2 mph 32.2 mph N/A   Clear
1:15 PM 55.4 °F - 23.0 °F 29% 30.03 in 10.0 mi NW 25.3 mph 29.9 mph N/A   Clear
1:35 PM 56.3 °F - 23.4 °F 28% 30.03 in 10.0 mi NW 23.0 mph 28.8 mph N/A   Clear
1:55 PM 56.8 °F - 23.2 °F 27% 30.03 in 10.0 mi NW 21.9 mph 26.5 mph N/A   Clear
2:15 PM 56.5 °F - 23.4 °F 28% 30.04 in 10.0 mi NW 23.0 mph 26.5 mph N/A   Clear
2:35 PM 56.1 °F - 21.6 °F 26% 30.04 in 10.0 mi NW 21.9 mph - N/A   Clear
2:55 PM 55.9 °F - 22.3 °F 27% 30.05 in 10.0 mi NW 18.4 mph 24.2 mph N/A   Clear
3:15 PM 55.6 °F - 23.2 °F 29% 30.05 in 10.0 mi NW 18.4 mph - N/A   Clear
3:35 PM 55.4 °F - 24.1 °F 30% 30.06 in 10.0 mi NW 15.0 mph 20.7 mph N/A   Clear
3:55 PM 54.9 °F - 23.9 °F 30% 30.07 in 10.0 mi NW 15.0 mph - N/A   Clear
4:15 PM 54.3 °F - 24.4 °F 31% 30.09 in 10.0 mi NW 15.0 mph - N/A   Clear
4:35 PM 52.9 °F - 25.5 °F 35% 30.10 in 10.0 mi NW 10.4 mph - N/A   Clear
4:55 PM 51.1 °F - 26.4 °F 38% 30.10 in 10.0 mi NNW 11.5 mph - N/A   Clear
5:15 PM 46.8 °F - 27.0 °F 46% 30.12 in 10.0 mi NNW 9.2 mph - N/A   Clear
5:35 PM 41.9 °F 36.3 °F 25.7 °F 53% 30.12 in 10.0 mi NNW 9.2 mph - N/A   Clear
5:55 PM 36.7 °F 30.5 °F 24.6 °F 62% 30.14 in 10.0 mi NNW 8.1 mph - N/A   Clear
6:15 PM 35.2 °F 29.5 °F 24.8 °F 66% 30.15 in 10.0 mi NNW 6.9 mph - N/A   Clear
6:35 PM 33.8 °F 27.0 °F 25.0 °F 70% 30.16 in 10.0 mi NNW 8.1 mph - N/A   Clear
6:55 PM 35.6 °F 32.8 °F 25.7 °F 67% 30.17 in 10.0 mi North 3.5 mph - N/A   Clear
7:15 PM 33.1 °F 26.1 °F 24.4 °F 71% 30.17 in 10.0 mi NNW 8.1 mph - N/A   Clear
7:35 PM 32.2 °F 25.8 °F 25.0 °F 75% 30.18 in 10.0 mi NNW 6.9 mph - N/A   Clear
7:55 PM 36.9 °F 34.3 °F 26.2 °F 65% 30.20 in 10.0 mi North 3.5 mph - N/A   Clear
8:15 PM 36.9 °F 33.1 °F 26.1 °F 65% 30.21 in 10.0 mi NNE 4.6 mph - N/A   Clear
8:35 PM 33.6 °F 30.6 °F 25.3 °F 72% 30.22 in 10.0 mi NE 3.5 mph - N/A   Clear
8:55 PM 31.5 °F - 24.3 °F 75% 30.22 in 10.0 mi Calm Calm - N/A   Clear
9:15 PM 33.8 °F - 24.4 °F 69% 30.24 in 10.0 mi Calm Calm - N/A   Clear
9:35 PM 30.7 °F 26.0 °F 24.1 °F 76% 30.25 in 10.0 mi North 4.6 mph - N/A   Clear
9:55 PM 36.1 °F 26.2 °F 28.2 °F 73% 30.26 in 10.0 mi NNE 17.3 mph 20.7 mph N/A   Clear
10:15 PM 34.5 °F 25.7 °F 26.6 °F 73% 30.28 in 10.0 mi NNE 12.7 mph - N/A   Clear
10:35 PM 32.9 °F 26.7 °F 25.7 °F 75% 30.29 in 10.0 mi NNE 6.9 mph - N/A   Clear
10:55 PM 32.0 °F 24.2 °F 25.5 °F 77% 30.31 in 10.0 mi North 9.2 mph - N/A   Clear
11:15 PM 32.0 °F 22.5 °F 18.9 °F 58% 30.31 in 10.0 mi North 12.7 mph 17.3 mph N/A   Clear
11:35 PM 30.7 °F 21.4 °F 15.4 °F 53% 30.31 in 10.0 mi North 11.5 mph - N/A   Clear
11:55 PM 29.7 °F 19.1 °F 16.5 °F 58% 30.31 in 10.0 mi North 13.8 mph - N/A   Clear